www.pogodaiklimat.ru

Погода и климат >> Архив погоды >> Бразилия >> Esperantina


ПОГОДА в Esperantina

  • Прогноз погоды в Esperantina
  • Монитор погоды в Esperantina
  • Климат города

АРХИВ ПОГОДЫ в Esperantina

Время (UTC), дата Ветер
(напр.,м/с)
 
Видим.   Явления Облачность Т
(С)
Тd
(С)
f
(%)
Тe
(С)
Тes
(С)
Комфортность P
(гПа)
Po
(гПа)
Тmin
(С)
Tmax
(С)
R
(мм)
R24
(мм)
S
(см)
05 15.10 С 1
{3}
н/о н/о +25.0 +22.3 85 +33 +33 очень
душно
1011.5 1001.3
04 15.10 С 1
{2}
н/о н/о +24.9 +22.4 86 +33 +33 очень
душно
1011.7 1001.5
06 15.10 С 1
{3}
н/о н/о +24.9 +21.8 83 +32 +32 очень
душно
1011.1 1000.9
07 15.10 С 1
{3}
н/о н/о +24.8 +21.5 82 +32 +32 очень
душно
1010.9 1000.7
08 15.10 С 1
{2}
н/о н/о +24.4 +21.5 84 +31 +31 очень
душно
1011.2 1001.0
09 15.10 С 1
{2}
н/о н/о +24.3 +21.7 85 +31 +31 очень
душно
1011.6 1001.4
11 15.10 СВ 1
{3}
н/о н/о +27.8 +21.2 67 +35 +35 очень
душно
1012.6 1002.5
10 15.10
{3}
н/о н/о +26.0 +21.6 77 1012.0 1001.9
12 15.10 СВ 1
{3}
н/о н/о +30.1 +20.2 55 +37 +37 очень
душно
1012.9 1002.9
13 15.10 штиль 0
{3}
н/о н/о +32.9 +18.9 44 +38 +38 очень
душно
1012.4 1002.5
14 15.10 штиль 0
{3}
н/о н/о +33.5 +18.5 41 +38 +38 очень
душно
1012.1 1002.2
15 15.10 С 1
{3}
н/о н/о +33.6 +18.1 40 +38 +38 очень
душно
1011.3 1001.4
17 15.10 СЗ 1
{4}
н/о н/о +32.7 +18.4 43 +37 +37 очень
душно
1009.2 999.3
16 15.10 С 1
{3}
н/о н/о +33.8 +18.4 40 +38 +38 очень
душно
1010.2 1000.3
18 15.10 СЗ 2
{4}
н/о н/о +34.4 +18.1 38 +38 +38 очень
душно
1008.4 998.6
19 15.10 С 2
{4}
н/о н/о +32.0 +18.6 45 +37 +37 очень
душно
1008.4 998.5
20 15.10 С 2
{4}
н/о н/о +30.5 +18.3 48 +35 +35 очень
душно
1009.2 999.3
21 15.10 С 2
{4}
н/о н/о +28.9 +20.4 60 +36 +36 очень
душно
1010.2 1000.2
23 15.10 С 1
{3}
н/о н/о +27.4 +19.3 61 +33 +33 очень
душно
1012.3 1002.2
22 15.10 С 1
{4}
н/о н/о +28.0 +19.6 60 +34 +34 очень
душно
1010.9 1000.9
00 16.10 штиль 0
{2}
н/о н/о +27.0 +19.8 65 +33 +33 очень
душно
1013.1 1003.0
01 16.10 штиль 0
{3}
н/о н/о +25.2 +21.0 78 +32 +32 очень
душно
1013.6 1003.4
02 16.10 С 1
{3}
н/о н/о +25.1 +20.6 76 +31 +31 очень
душно
1013.4 1003.2
03 16.10 С 1
{3}
н/о н/о +24.0 +19.7 77 +29 +29 душно 1011.9 1001.7
05 16.10 СВ 1
{3}
н/о н/о +24.4 +21.5 84 +31 +31 очень
душно
1010.1 999.9
04 16.10 С 1
{3}
н/о н/о +23.9 +21.5 86 +30 +30 очень
душно
1010.6 1000.4
06 16.10 С 1
{3}
н/о н/о +24.2 +21.5 85 +31 +31 очень
душно
1010.2 1000.0
07 16.10 штиль 0
{2}
н/о н/о +23.3 +21.1 87 +31 +31 очень
душно
1010.9 1000.7
08 16.10 штиль 0 н/о н/о +23.2 +21.4 90 +31 +31 очень
душно
1011.1 1000.9
09 16.10 штиль 0
{1}
н/о н/о +23.5 +21.6 89 +30 +30 очень
душно
1011.8 1001.6
11 16.10 СВ 2
{4}
н/о н/о +28.0 +20.8 65 +35 +35 очень
душно
1012.5 1002.4
10 16.10 СВ 1
{2}
н/о н/о +25.5 +21.8 80 +33 +33 очень
душно
1012.2 1002.1
12 16.10 С 2
{4}
н/о н/о +28.9 +20.5 61 +36 +36 очень
душно
1012.9 1002.9
13 16.10 С 1
{4}
н/о н/о +31.2 +19.3 49 +37 +37 очень
душно
1012.7 1002.7
14 16.10 СВ 1
{4}
н/о н/о +32.2 +18.7 45 +37 +37 очень
душно
1012.1 1002.2
15 16.10 штиль 0
{3}
н/о н/о +33.5 +19.1 43 +39 +39 очень
душно
1011.3 1001.4
17 16.10 штиль 0
{3}
н/о н/о +33.6 +17.9 39 +37 +37 очень
душно
1009.1 999.3
16 16.10 штиль 0 н/о н/о +33.2 +18.6 42 +38 +38 очень
душно
1010.1 1000.2
18 16.10 СВ 2
{5}
н/о н/о +29.7 +19.7 55 +36 +36 очень
душно
1009.0 999.0
19 16.10 штиль 0
{5}
н/о н/о +26.7 +21.8 75 +34 +34 очень
душно
1009.1 999.0
20 16.10 штиль 0
{2}
н/о н/о +27.0 +21.4 71 +34 +34 очень
душно
1009.3 999.2
21 16.10 штиль 0 н/о н/о +26.7 +21.7 74 +34 +34 очень
душно
1009.8 999.7
23 16.10 штиль 0 н/о н/о +25.7 +21.3 77 +33 +33 очень
душно
1010.9 1000.8
22 16.10 штиль 0 н/о н/о +26.4 +21.3 74 +34 +34 очень
душно
1010.3 1000.2
00 17.10 штиль 0
{3}
н/о н/о +25.5 +21.4 78 +32 +32 очень
душно
1011.3 1001.2
01 17.10 штиль 0
{1}
н/о н/о +25.0 +21.6 81 +32 +32 очень
душно
1011.7 1001.5
02 17.10 штиль 0 н/о н/о +24.3 +21.7 85 +31 +31 очень
душно
1011.9 1001.7
03 17.10 штиль 0 н/о н/о +24.0 +21.9 88 +31 +31 очень
душно
1011.4 1001.2
05 17.10 штиль 0 н/о н/о +23.7 +22.0 90 +31 +31 очень
душно
1010.7 1000.5
04 17.10 штиль 0 н/о н/о +23.7 +22.0 90 +31 +31 очень
душно
1010.9 1000.7
06 17.10 штиль 0 н/о н/о +23.5 +21.9 91 +30 +30 очень
душно
1010.6 1000.4
07 17.10 штиль 0 н/о н/о +23.8 +22.1 90 +31 +31 очень
душно
1010.8 1000.6
08 17.10 штиль 0 н/о н/о +23.5 +22.0 91 +30 +30 очень
душно
1011.3 1001.1
09 17.10 штиль 0 н/о н/о +23.7 +22.1 91 +31 +31 очень
душно
1011.8 1001.6
11 17.10 штиль 0 н/о н/о +28.6 +20.8 63 +36 +36 очень
душно
1012.6 1002.6
10 17.10 штиль 0 н/о н/о +25.6 +21.8 80 +33 +33 очень
душно
1012.3 1002.2
12 17.10 штиль 0
{3}
н/о н/о +31.5 +19.5 49 +37 +37 очень
душно
1012.6 1002.7
13 17.10 штиль 0
{2}
н/о н/о +32.5 +19.6 47 +38 +38 очень
душно
1012.5 1002.6
14 17.10 штиль 0
{3}
н/о н/о +34.1 +18.0 39 +38 +38 очень
душно
1011.6 1001.7
15 17.10 штиль 0
{3}
н/о н/о +34.7 +18.5 38 +39 +39 очень
душно
1010.7 1000.9
17 17.10 штиль 0
{2}
н/о н/о +38.2 +17.7 30 +41 +41 опасность
перегрева
1008.0 998.3
16 17.10 штиль 0
{2}
н/о н/о +34.7 +18.0 37 +39 +39 очень
душно
1009.4 999.6
18 17.10 Ю 1
{4}
н/о н/о +31.5 +19.4 49 +37 +37 очень
душно
1008.2 998.3
19 17.10 ЮВ 1
{5}
н/о н/о +31.2 +18.3 46 +36 +36 очень
душно
1008.3 998.4
20 17.10 штиль 0
{3}
н/о н/о +31.1 +19.8 51 +37 +37 очень
душно
1008.3 998.4
21 17.10 штиль 0
{3}
н/о н/о +28.7 +20.4 61 +35 +35 очень
душно
1009.3 999.3
23 17.10
{4}
н/о н/о +27.1 +20.9 69 1011.6 1001.5
22 17.10 штиль 0
{3}
н/о н/о +27.7 +21.1 67 +35 +35 очень
душно
1009.9 999.9
00 18.10
{3}
н/о н/о +26.7 +21.1 71 1012.3 1002.2
01 18.10 С 1
{3}
н/о н/о +26.3 +21.2 74 +33 +33 очень
душно
1012.6 1002.5
02 18.10 С 1
{2}
н/о н/о +25.7 +21.3 77 +33 +33 очень
душно
1012.5 1002.4
03 18.10 С 1
{2}
н/о н/о +25.1 +21.1 78 +32 +32 очень
душно
1011.8 1001.6
05 18.10 С 1
{2}
н/о н/о +24.1 +20.6 81 +30 +30 очень
душно
1010.2 1000.0
04 18.10 С 1
{2}
н/о н/о +24.5 +20.8 80 +31 +31 очень
душно
1010.8 1000.6
06 18.10 штиль 0
{2}
н/о н/о +23.6 +20.4 82 +29 +29 душно 1010.4 1000.2
07 18.10 штиль 0
{1}
н/о н/о +23.4 +20.5 84 +31 +31 очень
душно
1010.5 1000.3
08 18.10 штиль 0
{1}
н/о н/о +23.0 +20.5 86 +30 +30 очень
душно
1011.0 1000.8
09 18.10 штиль 0
{1}
н/о н/о +22.7 +20.7 88 +30 +30 очень
душно
1011.9 1001.7
11 18.10 В 1
{3}
н/о н/о +29.6 +19.7 55 +36 +36 очень
душно
1012.7 1002.7
10 18.10 В 1
{2}
н/о н/о +26.1 +20.3 70 +32 +32 очень
душно
1012.3 1002.2
12 18.10 В 1
{4}
н/о н/о +31.8 +18.9 46 +37 +37 очень
душно
1012.7 1002.8
13 18.10 ЮВ 1
{4}
н/о н/о +33.3 +18.4 41 +38 +38 очень
душно
1012.3 1002.4
14 18.10 В 1
{3}
н/о н/о +34.9 +17.9 37 +39 +39 очень
душно
1011.4 1001.6
15 18.10 штиль 0
{3}
н/о н/о +36.3 +16.5 31 +39 +39 очень
душно
1010.1 1000.3
17 18.10 В 1
{4}
н/о н/о +36.9 +15.3 28 +38 +38 очень
душно
1007.6 997.9
16 18.10 штиль 0
{4}
н/о н/о +37.6 +15.9 28 +39 +39 очень
душно
1008.5 998.8
18 18.10 В 1
{4}
н/о н/о +37.6 +14.4 25 +38 +38 очень
жарко
1006.8 997.1
19 18.10 штиль 0
{3}
н/о н/о +37.8 +14.0 24 +38 +38 очень
жарко
1006.3 996.6
20 18.10 штиль 0
{2}
н/о н/о +34.7 +14.8 30 +36 +36 душно 1006.7 996.9
21 18.10 С 2
{4}
н/о н/о +32.0 +19.4 47 +38 +38 очень
душно
1007.6 997.7
23 18.10
{4}
н/о н/о +27.7 +19.8 62 1009.1 999.1
22 18.10 штиль 0
{4}
н/о н/о +29.2 +19.9 57 +35 +35 очень
душно
1008.5 998.5
00 19.10 штиль 0
{3}
н/о н/о +26.7 +20.0 67 +33 +33 очень
душно
1009.6 999.5
01 19.10 штиль 0
{2}
н/о н/о +25.8 +20.3 72 +32 +32 очень
душно
1009.7 999.6
02 19.10 штиль 0
{2}
н/о н/о +25.2 +20.5 75 +31 +31 очень
душно
1009.6 999.5
03 19.10 штиль 0 н/о н/о +24.6 +20.3 77 +30 +30 очень
душно
1009.3 999.2
05 19.10 штиль 0
{2}
н/о н/о +23.7 +19.1 75 +28 +28 душно 1008.2 998.0
04 19.10 штиль 0 н/о н/о +24.1 +19.8 77 +29 +29 душно 1008.6 998.4
06 19.10 штиль 0 н/о н/о +23.2 +19.0 77 +29 +29 душно 1008.3 998.1
07 19.10 штиль 0 н/о н/о +22.4 +19.1 82 +28 +28 душно 1008.3 998.1
08 19.10 штиль 0 н/о н/о +21.9 +19.2 85 +27 +27 душно 1008.7 998.5
09 19.10 штиль 0 н/о н/о +21.8 +19.4 86 +27 +27 душно 1009.5 999.3
11 19.10 штиль 0
{3}
н/о н/о +28.7 +18.5 54 +34 +34 очень
душно
1010.8 1000.8
10 19.10 штиль 0 н/о н/о +25.5 +19.2 68 +31 +31 очень
душно
1010.3 1000.2
12 19.10 штиль 0
{3}
н/о н/о +30.4 +17.6 46 +34 +34 очень
душно
1011.1 1001.1
13 19.10 штиль 0
{1}
н/о н/о +31.9 +17.1 41 +35 +35 очень
душно
1011.0 1001.1
14 19.10 штиль 0
{3}
н/о н/о +33.6 +15.5 34 +36 +36 очень
душно
1009.9 1000.0
15 19.10 штиль 0
{4}
н/о н/о +37.2 +15.9 28 +39 +39 очень
душно
1008.2 998.5
17 19.10 В 1
{3}
н/о н/о +37.9 +12.7 22 +38 +38 очень
жарко
1005.8 996.1
16 19.10 штиль 0
{3}
н/о н/о +37.9 +14.5 25 +39 +39 очень
душно
1006.8 997.1
18 19.10 штиль 0
{3}
н/о н/о +36.8 +12.5 23 +37 +37 очень
жарко
1005.0 995.3
19 19.10 штиль 0
{2}
н/о н/о +37.1 +12.9 24 +37 +37 очень
жарко
1004.9 995.2
20 19.10 штиль 0
{2}
н/о н/о +36.7 +13.1 24 +37 +37 очень
жарко
1005.1 995.4
21 19.10
{4}
н/о н/о +31.9 +18.5 45 1006.2 996.3
23 19.10 штиль 0
{3}
н/о н/о +28.3 +19.6 59 +34 +34 очень
душно
1008.4 998.4
22 19.10 С 1
{4}
н/о н/о +29.4 +19.6 56 +35 +35 очень
душно
1007.4 997.4
00 20.10 штиль 0
{3}
н/о н/о +27.4 +19.3 61 +33 +33 очень
душно
1009.2 999.2
01 20.10 штиль 0
{3}
н/о н/о +26.8 +19.4 64 +32 +32 очень
душно
1009.4 999.3
02 20.10 штиль 0
{2}
н/о н/о +26.2 +18.9 64 +31 +31 очень
душно
1009.2 999.1
03 20.10 штиль 0
{2}
н/о н/о +25.7 +18.0 62 +30 +30 душно 1008.6 998.5
05 20.10 штиль 0
{2}
н/о н/о +24.2 +17.7 67 +28 +28 душно 1007.5 997.4
04 20.10 штиль 0
{2}
н/о н/о +25.2 +17.6 63 +29 +29 душно 1007.9 997.8
06 20.10 штиль 0
{1}
н/о н/о +23.4 +18.0 72 +29 +29 душно 1007.9 997.7
07 20.10 штиль 0
{2}
н/о н/о +22.9 +18.5 76 +29 +29 очень
душно
1008.0 997.8
08 20.10 штиль 0 н/о н/о +21.9 +18.5 81 +27 +27 душно 1008.6 998.4
09 20.10 штиль 0 н/о н/о +21.8 +19.0 84 +27 +27 душно 1009.0 998.8
11 20.10 штиль 0 н/о н/о +28.3 +18.7 56 +33 +33 очень
душно
1010.3 1000.3
10 20.10 штиль 0 н/о н/о +24.8 +19.7 73 +30 +30 душно 1009.5 999.4
12 20.10 штиль 0
{2}
н/о н/о +30.7 +16.4 42 +34 +34 очень
душно
1010.3 1000.3
13 20.10 штиль 0
{2}
н/о н/о +32.4 +15.3 36 +35 +35 душно 1009.7 999.8
14 20.10 штиль 0 н/о н/о +34.0 +14.4 31 +35 +35 очень
жарко
1008.8 999.0
15 20.10 штиль 0
{1}
н/о н/о +35.7 +14.0 27 +36 +36 очень
жарко
1007.4 997.6
17 20.10 штиль 0
{2}
н/о н/о +39.0 +13.2 22 +39 +39 очень
жарко
1004.5 994.9
16 20.10 штиль 0
{2}
н/о н/о +38.0 +13.6 23 +38 +38 очень
жарко
1005.9 996.2
18 20.10 штиль 0
{1}
н/о н/о +38.7 +12.5 21 +38 +38 очень
жарко
1003.8 994.2
19 20.10 штиль 0
{1}
н/о н/о +38.4 +12.7 22 +38 +38 очень
жарко
1003.7 994.1
20 20.10 С 2
{5}
н/о н/о +34.5 +19.6 42 +40 +40 очень
душно
1004.6 994.8
21 20.10 С 2
{5}
н/о н/о +30.9 +20.4 54 +38 +38 очень
душно
1006.1 996.2
23 20.10 С 2
{5}
н/о н/о +27.2 +20.5 67 +34 +34 очень
душно
1008.2 998.2
22 20.10 С 1
{5}
н/о н/о +28.6 +20.9 63 +36 +36 очень
душно
1007.3 997.3
00 21.10
{5}
н/о н/о +26.4 +20.8 71 1009.0 998.9
01 21.10 С 1
{3}
н/о н/о +26.0 +21.1 74 +33 +33 очень
душно
1009.4 999.3
02 21.10
{4}
н/о н/о +25.8 +21.2 76 1009.6 999.5
03 21.10 С 1
{3}
н/о н/о +25.4 +21.1 77 +32 +32 очень
душно
1009.2 999.1
05 21.10 штиль 0
{4}
н/о н/о +24.7 +20.3 77 +31 +31 очень
душно
1008.3 998.2
04 21.10 С 2
{4}
н/о н/о +25.1 +20.9 78 +32 +32 очень
душно
1008.5 998.4
06 21.10 штиль 0 н/о н/о +24.5 +19.9 76 +30 +30 очень
душно
1008.6 998.5
07 21.10 штиль 0 н/о н/о +24.1 +19.8 77 +29 +29 душно 1009.2 999.0
08 21.10 штиль 0 н/о н/о +24.1 +19.9 77 +29 +29 душно 1009.6 999.4
09 21.10 штиль 0 н/о н/о +24.3 +20.3 78 +30 +30 очень
душно
1010.4 1000.2
11 21.10 СВ 1
{4}
н/о н/о +28.5 +19.1 57 +34 +34 очень
душно
1011.7 1001.7
10 21.10 штиль 0 н/о н/о +25.9 +20.2 71 +32 +32 очень
душно
1010.8 1000.7
12 21.10 В 1
{3}
н/о н/о +31.1 +18.0 46 +36 +36 очень
душно
1012.0 1002.0
13 21.10 В 1
{3}
н/о н/о +32.8 +17.7 41 +37 +37 очень
душно
1011.6 1001.7
14 21.10 штиль 0
{4}
н/о н/о +33.1 +17.5 39 +37 +37 очень
душно
1011.0 1001.1
15 21.10 штиль 0
{3}
н/о н/о +34.5 +17.1 36 +38 +38 очень
душно
1009.5 999.7
17 21.10 штиль 0
{3}
н/о н/о +35.7 +16.2 31 +38 +38 очень
душно
1007.7 997.9
16 21.10 штиль 0
{3}
н/о н/о +34.5 +16.5 34 +37 +37 очень
душно
1008.5 998.7
18 21.10 штиль 0
{2}
н/о н/о +35.4 +16.7 33 +38 +38 очень
душно
1007.1 997.3
19 21.10 штиль 0
{5}
н/о н/о +34.0 +21.3 48 +42 +42 опасность
перегрева
1006.9 997.1
20 21.10 штиль 0
{2}
н/о н/о +28.8 +21.3 64 +36 +36 очень
душно
1007.5 997.5
21 21.10 штиль 0
{4}
н/о н/о +28.0 +23.1 75 +38 +38 очень
душно
1008.6 998.6
23 21.10 штиль 0
{5}
н/о н/о +25.5 +21.5 79 +33 +33 очень
душно
1011.1 1001.0
22 21.10 С 2
{5}
н/о н/о +24.0 +21.9 88 +31 +31 очень
душно
1009.6 999.4
00 22.10 С 1
{3}
н/о н/о +25.6 +21.1 76 +32 +32 очень
душно
1011.3 1001.2
01 22.10 С 1
{4}
н/о н/о +25.3 +21.6 80 +32 +32 очень
душно
1011.5 1001.4
02 22.10 штиль 0
{3}
н/о н/о +25.1 +21.8 82 +32 +32 очень
душно
1011.8 1001.6
03 22.10 штиль 0
{2}
н/о н/о +24.7 +21.6 83 +32 +32 очень
душно
1011.6 1001.4
04 22.10 штиль 0
{3}
н/о н/о +24.6 +20.9 80 +31 +31 очень
душно
1011.0 1000.8

 

Местоположение метеостанции Esperantina (Бразилия): широта -3.90 долгота -42.27 высота над уровнем моря 67 м.

В архиве по умолчанию представлена погода в Esperantina за последнюю неделю. Архивные данные за месяц целиком и за предыдущие месяцы, начиная с января 2011 года, Вы можете получить, выбрав интересующий диапазон дат из раскрывающегося списка и нажав кнопку "Ввод!".


*Определитесь, кто Вы:
робот инопланетянин человек

Внимание! Время в таблицах - всемирное. Для получения местного времени необходимо прибавить поправку, которая в Esperantina равна -3 ч.

Смотрите также архив погоды в соседних городах и на ближайших метеорологических станциях:

Погода в Piripiri (Бразилия) (67 км)
Погода в Parnaiba (Бразилия) (106 км)
Погода в Parnaiba (Бразилия) (107 км)
Погода в Chapadinha (Бразилия) (121 км)
Погода в Teresina (Бразилия) (140 км)
Погода в Teresina (Бразилия) (141 км)
Погода в Caxias (Бразилия) (158 км)
Погода в Caxias (Бразилия) (161 км)
Погода в Castelo do Piaui (Бразилия) (181 км)
Погода в Sobral (Бразилия) (214 км)

Пояснения к столбцам:

Ветер - указаны скорость ветра в м/с - средняя за 10 мин, порывы в срок и между сроками (в фигурных скобках) и направление, откуда дует ветер: С - северный, СВ - северо-восточный, В - восточный, ЮВ - юго-восточный, Ю - южный, ЮЗ - юго-западный, З - западный, СЗ - северо-западный.
Видимость - горизонтальная дальность видимости в метрах или километрах. При видимости от 1 до 10 км при отсутствии осадков обычно наблюдается дымка, при ухудшении видимости до 1 км и менее - туман. В сухую погоду видимость может ухудшаться дымом, пылью или мглою.
Явления - указаны атмосферные явления, наблюдавшиеся в срок или в последний час перед сроком; фигурными скобками обозначены явления, наблюдавшиеся между сроками (за 1-3 часа до срока); квадратными скобками обозначены град или гололедные отложения с указанием их диаметра в мм.
Облачность - указаны через наклонную черту общая и нижняя облачность в баллах и высота нижней границы облаков в метрах; квадратными скобками обозначены формы облаков: Ci - перистые, Cs - перисто-слоистые, Cc - перисто-кучевые, Ac - высококучевые, As - высокослоистые, Sc - слоисто-кучевые, Ns - слоисто-дождевые, Cu - кучевые, Cb - кучево-дождевые. Подробнее классификацию облаков см. в Атласе облаков (PDF).
T - Температура воздуха - температура, измеренная на высоте 2 м над землей.
Td - Температура точки росы - температура, при понижении до которой содержащийся в воздухе водяной пар достигнет насыщения.
f - Относительная влажность воздуха - влажноcть воздуха, измеренная на высоте 2 м над землей.
Te - Эффективная температура - температура, которую ощущает одетый по сезону человек в тени. Характеристика душности погоды. При расчете учитывается влияние влажности воздуха и скорости ветра на теплоощущения человека.
Tes - Эффективная температура на солнце - температура, которую ощущает человек, с поправкой на солнечный нагрев. Характеристика знойности погоды. Зависит от высоты солнца над горизонтом, облачности и скорости ветра. Ночью, в пасмурную погоду, а также при ветре 12 м/с и более поправка равна нулю.
P - Атмосферное давление - приведенное к уровню моря атмосферное давление.
Po - Атмосферное давление - измеренное на уровне метеостанции атмосферное давление.
Tmin - Минимальная температура - минимум температуры воздуха на высоте 2 м над землей.
Tmax - Максимальная температура - максимум температуры воздуха на высоте 2 м над землей.
R - Количество осадков - Количество выпавших осадков за период времени, мм. При наведении курсора мыши на число - период времени, за который выпало указанное количество осадков.
R24 - Количество осадков - Количество выпавших осадков за 24 часа, мм.
S - Снежный покров - Высота снежного покрова, см. При наведении курсора мыши на число - состояние снежного покрова и степень покрытия местности в баллах.